(431725) = 2008 FH18 = 2013 SW68

Discovered at Mount Lemmon on 2008-02-28 by Mt. Lemmon Survey.

Orbit

Orbit type: Main Belt

Note: WebGL enabled browser required.

epoch2023-09-13.0
epoch JD2460200.5
perihelion date2025-04-24.85911
perihelion JD2460790.35911
argument of perihelion (°)328.20475
ascending node (°)153.06920
inclination (°)5.00570
eccentricity0.1048099
perihelion distance (AU)2.0653301
Tisserand w.r.t. Jupiter3.6
ΔV w.r.t. Earth (km/sec)9.0
semimajor axis (AU)2.3071413
mean anomaly (°)194.10212
mean daily motion (°/day)0.28125000
aphelion distance (AU)2.549
period (years)3.5
P-vector [x]-0.52004073
P-vector [y]0.80081063
P-vector [z]0.29708580
Q-vector [x]-0.85322675
Q-vector [y]-0.50314096
Q-vector [z]-0.13730725
absolute magnitude18.1
phase slope0.15
uncertainty0
referenceMPEC 2023-O65
observations used177
oppositions11
arc length (days)6142
first opposition used2006
last opposition used2023
residual rms (arc-secs)0.74
perturbers coarse indicatorM-v
perturbers precise indicator003Ek
first observation date used2006-09-28.0
last observation date used2023-07-23.0
computer nameMPCLINUX
Minimum Orbit Intersection Distances (in AU)
for orbit epoch: 2460200.5, reference: E2023-O65
Mercury1.73687
Venus1.35101
Earth1.08146
Mars0.42699
Jupiter2.50105
Saturn6.93519
Uranus16.3015
Neptune27.4684

Observations

183 total observations over interval: 2006 09 28.23460 – 2023 07 23.453128
These data are available for download (format description).

Date (UT) J2000 RA J2000 Dec Magn Location Ref
2006 09 28.23460 00 15 19.30 -03 03 00.7 21.1 V 691 – Steward Observatory, Kitt Peak-Spacewatch MPS 506392
2006 09 28.25203 00 15 18.32 -03 03 09.1 21.0 V 691 – Steward Observatory, Kitt Peak-Spacewatch MPS 506392
2006 09 28.26947 00 15 17.34 -03 03 17.5 21.3 V 691 – Steward Observatory, Kitt Peak-Spacewatch MPS 506392
2008 02 28.41123 11 51 19.18 +03 34 41.3 20.5 V G96 – Mt. Lemmon Survey MPS 270229
2008 02 28.42193 11 51 18.68 +03 34 46.9 20.5 V G96 – Mt. Lemmon Survey MPS 270229
2008 02 28.43256 11 51 18.18 +03 34 52.6 20.8 V G96 – Mt. Lemmon Survey MPS 270229
2008 02 28.44321 11 51 17.67 +03 34 58.0 20.1 V G96 – Mt. Lemmon Survey MPS 270229
2008 03 27.20576 11 28 04.64 +07 31 26.7   291 – LPL/Spacewatch II MPS 244853
2008 03 27.21017 11 28 04.42 +07 31 28.7   291 – LPL/Spacewatch II MPS 244853
2008 03 27.21394 11 28 04.25 +07 31 30.0   291 – LPL/Spacewatch II MPS 244853
2008 03 27.27634 11 28 01.30 +07 31 56.7   291 – LPL/Spacewatch II MPS 252523
2008 03 27.28045 11 28 01.09 +07 31 58.4   291 – LPL/Spacewatch II MPS 252523
2008 03 27.28425 11 28 00.91 +07 32 00.1   291 – LPL/Spacewatch II MPS 252523
2008 03 28.18273 11 27 20.78 +07 38 17.8   291 – LPL/Spacewatch II MPS 244853
2008 03 28.18646 11 27 20.60 +07 38 19.1   291 – LPL/Spacewatch II MPS 244853
2008 03 28.19018 11 27 20.44 +07 38 20.8   291 – LPL/Spacewatch II MPS 244853
2008 04 01.19611 11 24 31.99 +08 04 26.8 21.1 V 691 – Steward Observatory, Kitt Peak-Spacewatch MPS 252523
2008 04 01.21248 11 24 31.30 +08 04 32.6 20.4 V 691 – Steward Observatory, Kitt Peak-Spacewatch MPS 252523
2008 04 01.22885 11 24 30.65 +08 04 38.4 20.7 V 691 – Steward Observatory, Kitt Peak-Spacewatch MPS 252523
2008 04 13.17569 11 18 28.11 +09 00 47.4 20.3 V G96 – Mt. Lemmon Survey MPS 270229
2008 04 13.18174 11 18 27.97 +09 00 48.7 20.6 V G96 – Mt. Lemmon Survey MPS 270229
2008 04 13.18784 11 18 27.82 +09 00 49.5 21.3 V G96 – Mt. Lemmon Survey MPS 270229
2008 04 13.19391 11 18 27.68 +09 00 50.7 20.5 V G96 – Mt. Lemmon Survey MPS 270229
2010 12 06.33851 05 15 28.22 +14 00 00.3 20.0 V G96 – Mt. Lemmon Survey MPS 506392
2010 12 06.34537 05 15 27.79 +14 00 00.0 19.8 V G96 – Mt. Lemmon Survey MPS 506392
2010 12 06.35236 05 15 27.28 +13 59 59.4 20.2 V G96 – Mt. Lemmon Survey MPS 506392
2010 12 06.35931 05 15 26.82 +13 59 59.0 20.1 V G96 – Mt. Lemmon Survey MPS 506392
2013 09 24.33399 00 10 47.36 -03 13 53.4 20.2 V G96 – Mt. Lemmon Survey MPS 480389
2013 09 24.33987 00 10 47.00 -03 13 55.7 20.5 V G96 – Mt. Lemmon Survey MPS 480389
2013 09 24.34582 00 10 46.65 -03 13 59.2 20.7 V G96 – Mt. Lemmon Survey MPS 480389
2013 09 24.35167 00 10 46.31 -03 14 01.6 20.6 V G96 – Mt. Lemmon Survey MPS 480389
2013 09 24.37942 00 10 44.80 -03 14 15.0 20.4 V 691 – Steward Observatory, Kitt Peak-Spacewatch MPS 480389
2013 09 24.38354 00 10 44.53 -03 14 17.4 20.9 V 691 – Steward Observatory, Kitt Peak-Spacewatch MPS 480389
2013 09 24.38765 00 10 44.27 -03 14 19.3 20.7 V 691 – Steward Observatory, Kitt Peak-Spacewatch MPS 480389
2013 09 25.38110 00 09 50.53 -03 22 21.2 21.0 V G96 – Mt. Lemmon Survey MPS 480389
2013 09 25.38707 00 09 50.20 -03 22 23.1 20.1 V G96 – Mt. Lemmon Survey MPS 480389
2013 09 25.39309 00 09 49.89 -03 22 26.7 20.8 V G96 – Mt. Lemmon Survey MPS 480389
2013 09 25.39907 00 09 49.52 -03 22 29.2 20.9 V G96 – Mt. Lemmon Survey MPS 480389
2015 01 21.56160 11 49 39.503 +01 16 30.48 21.3 w F51 – Pan-STARRS 1, Haleakala MPS 562645
2015 01 21.57314 11 49 39.689 +01 16 31.30 21.4 w F51 – Pan-STARRS 1, Haleakala MPS 562645
2015 01 21.58475 11 49 39.856 +01 16 32.04 21.2 w F51 – Pan-STARRS 1, Haleakala MPS 562645
2015 02 10.48887 11 49 09.02 +02 26 10.6 20.7 V G96 – Mt. Lemmon Survey MPS 570994
2015 02 10.49868 11 49 08.82 +02 26 14.0 20.4 V G96 – Mt. Lemmon Survey MPS 570994
2015 02 10.51027 11 49 08.53 +02 26 18.7 20.2 V G96 – Mt. Lemmon Survey MPS 570994
2015 02 10.51738 11 49 08.41 +02 26 21.0 20.7 V G96 – Mt. Lemmon Survey MPS 570994
2015 02 15.47032 11 47 04.544 +02 58 04.22 20.8 w F51 – Pan-STARRS 1, Haleakala MPS 580302
2015 02 15.48352 11 47 04.115 +02 58 09.91 20.7 w F51 – Pan-STARRS 1, Haleakala MPS 580302
2015 02 15.49681 11 47 03.695 +02 58 15.32 20.8 w F51 – Pan-STARRS 1, Haleakala MPS 580302
2015 02 15.51011 11 47 03.250 +02 58 20.89 20.9 w F51 – Pan-STARRS 1, Haleakala MPS 580302
2015 02 16.45579 11 46 34.687 +03 04 58.73 20.8 w F51 – Pan-STARRS 1, Haleakala MPS 580302
2015 02 16.46873 11 46 34.248 +03 05 04.42 20.8 w F51 – Pan-STARRS 1, Haleakala MPS 580302
2015 02 16.48166 11 46 33.808 +03 05 09.82 20.7 w F51 – Pan-STARRS 1, Haleakala MPS 580302
2015 02 16.49460 11 46 33.369 +03 05 15.43 20.7 w F51 – Pan-STARRS 1, Haleakala MPS 580302
2015 02 25.36342 11 40 56.21 +04 14 52.5 20.2 V 691 – Steward Observatory, Kitt Peak-Spacewatch MPS 583308
2015 02 25.37866 11 40 55.51 +04 15 01.4 20.5 V 691 – Steward Observatory, Kitt Peak-Spacewatch MPS 583308
2015 02 25.39299 11 40 54.82 +04 15 07.9 20.8 V 691 – Steward Observatory, Kitt Peak-Spacewatch MPS 583308
2015 03 10.34121 11 30 13.69 +06 10 12.3 20.1 V G96 – Mt. Lemmon Survey MPS 585685
2015 03 10.34854 11 30 13.33 +06 10 15.9 20.0 V G96 – Mt. Lemmon Survey MPS 585685
2015 03 10.35585 11 30 12.91 +06 10 20.2 20.1 V G96 – Mt. Lemmon Survey MPS 585685
2015 03 10.36314 11 30 12.50 +06 10 24.0 20.2 V G96 – Mt. Lemmon Survey MPS 585685
2015 03 11.74883 11 28 59.07 +06 22 47.8 19.9 R D29 – Purple Mountain Observatory, XuYi Station MPS 585685
2015 03 11.77881 11 28 57.50 +06 23 04.2 20.5 R D29 – Purple Mountain Observatory, XuYi Station MPS 585685
2015 03 15.29123 11 25 52.39 +06 53 58.5 20.4 V G96 – Mt. Lemmon Survey MPS 587142
2015 03 15.29874 11 25 51.97 +06 54 02.0 20.4 V G96 – Mt. Lemmon Survey MPS 587142
2015 03 15.31417 11 25 51.12 +06 54 10.1 20.3 V G96 – Mt. Lemmon Survey MPS 587142
2015 03 24.48060 11 18 12.714 +08 08 13.93 20.5 w F51 – Pan-STARRS 1, Haleakala MPS 592389
2015 03 24.49209 11 18 12.159 +08 08 19.09 20.6 w F51 – Pan-STARRS 1, Haleakala MPS 592389
2015 03 24.50356 11 18 11.596 +08 08 24.12 20.7 w F51 – Pan-STARRS 1, Haleakala MPS 592389
2015 03 24.51501 11 18 11.038 +08 08 29.08 20.7 w F51 – Pan-STARRS 1, Haleakala MPS 592389
2015 03 25.49467 11 17 26.243 +08 15 36.50 20.5 w F51 – Pan-STARRS 1, Haleakala MPS 592389
2015 03 25.50617 11 17 25.700 +08 15 41.39 20.6 w F51 – Pan-STARRS 1, Haleakala MPS 592389
2015 03 25.51762 11 17 25.158 +08 15 46.36 20.6 w F51 – Pan-STARRS 1, Haleakala MPS 592389
2016 07 13.46229 20 27 35.335 -14 29 02.50 21.6 w F51 – Pan-STARRS 1, Haleakala MPS 721294
2016 07 13.47392 20 27 34.675 -14 29 05.69 21.5 w F51 – Pan-STARRS 1, Haleakala MPS 721294
2016 07 13.49724 20 27 33.333 -14 29 12.06 21.8 w F51 – Pan-STARRS 1, Haleakala MPS 721294
2017 11 16.39451 05 21 52.89 +14 22 13.5 19.7 G G96 – Mt. Lemmon Survey MPS 838989
2017 11 16.42602 05 21 51.54 +14 22 08.2 21.0 G G96 – Mt. Lemmon Survey MPS 838989
2017 11 16.43175 05 21 51.26 +14 22 07.4 20.2 G G96 – Mt. Lemmon Survey MPS 838989
2017 11 16.43748 05 21 51.06 +14 22 06.4 21.1 G G96 – Mt. Lemmon Survey MPS 838989
2017 11 26.34808 05 13 40.56 +13 57 50.6 20.6 G G96 – Mt. Lemmon Survey MPS 844981
2017 11 26.35334 05 13 40.24 +13 57 49.8 20.4 G G96 – Mt. Lemmon Survey MPS 844981
2017 11 26.35860 05 13 39.92 +13 57 49.0 20.9 G G96 – Mt. Lemmon Survey MPS 844981
2017 11 26.36388 05 13 39.63 +13 57 48.1 20.7 G G96 – Mt. Lemmon Survey MPS 844981
2017 12 15.25800 04 53 58.41 +13 35 04.4 20.6 G G96 – Mt. Lemmon Survey MPS 851414
2017 12 15.26351 04 53 58.05 +13 35 04.5 20.7 G G96 – Mt. Lemmon Survey MPS 851414
2017 12 15.26874 04 53 57.71 +13 35 04.5 20.6 G G96 – Mt. Lemmon Survey MPS 851414
2017 12 15.27396 04 53 57.35 +13 35 04.1   G96 – Mt. Lemmon Survey MPS 851414
2017 12 24.26825 04 45 10.218 +13 38 54.48 20.9 w F51 – Pan-STARRS 1, Haleakala MPS 854134
2017 12 24.28101 04 45 09.504 +13 38 55.28 20.8 w F51 – Pan-STARRS 1, Haleakala MPS 854134
2017 12 24.29378 04 45 08.793 +13 38 56.16 20.7 w F51 – Pan-STARRS 1, Haleakala MPS 854134
2017 12 24.30651 04 45 08.082 +13 38 57.05 20.7 w F51 – Pan-STARRS 1, Haleakala MPS 854134
2017 12 25.23700 04 44 18.95 +13 39 55.8 20.8 G G96 – Mt. Lemmon Survey MPS 854134
2017 12 25.24216 04 44 18.64 +13 39 55.8 20.3 G G96 – Mt. Lemmon Survey MPS 854134
2017 12 25.24732 04 44 18.41 +13 39 56.2 20.3 G G96 – Mt. Lemmon Survey MPS 854134
2017 12 25.25249 04 44 18.10 +13 39 57.0 20.4 G G96 – Mt. Lemmon Survey MPS 854134
2019 05 26.39805 16 14 28.755 -12 30 39.20 21.5 w F51 – Pan-STARRS 1, Haleakala MPS 1011884
